Terug naar catalogus

CZ-4C SEP MOTOR COVER

ActiefSSO
NORAD 49047·DEBRIS·🇨🇳 China
Deze satellietnaam is nog niet bevestigd door officiële bronnen.

Gelanceerd Jul 4, 2021 vanaf Jiuquan Satellite Launch Center

Loading…

Volgende Passages (komende 24 uur)

TLE

VersSource: Space-Track

Epoch: Sep 14, 2026, 06:45 UTC

1 49047U 21062E   26257.28125064  .00000047  00000-0  36980-4 0  9996
2 49047  98.6611 275.9567 0004990 152.0717 208.0733 14.27882675268518

Volg CZ-4C SEP MOTOR COVER in realtime met AllMySat

Download on the App Store